Location: Eexterzandvoort
(53.0303°N, 6.7884°E)
Time: 01:06:49
(UTC+00:00)

Cosmos 2218 Rocket - Pass Details

Date: 19 May 2025
Orbit: 954 x 1006 km, 82.9° (Epoch: 23 June)

Event Time Altitude Azimuth Distance (km) Brightness Sun altitude
Rises 20:30:50 0° 350° (N) 3,743 8.2 -7.4°
Reaches altitude 10° 20:33:27 10° 354° (N) 2,785 7.3 -7.7°
Maximum altitude 20:39:47 61° 75° (ENE) 1,122 4.2 -8.3°
Drops below altitude 10° 20:46:00 10° 155° (SSE) 2,736 5.7 -8.9°
Enters shadow 20:46:02 10° 155° (SSE) 2,748 5.7 -8.9°
